Regional Weather Roundup
Issued by NWS Sioux Falls, SD

Home | Current Version | Previous Version | Graphics & Text | Print | Product List | Glossary Off
Versions: 1 2 3 4 5 6 7 8 9 10 11 12 13 14 15 16 17 18 19 20 21 22 23 24 25 26 27 28 29 30 31 32 33 34 35 36 37 38 39 40 41 42 43 44 45 46 47 48 49 50

000
ASUS43 KFSD 200210
RWRFSD

WEATHER ROUNDUP FOR SE SOUTH DAKOTA/SW MINNESOTA/NW IOWA
NATIONAL WEATHER SERVICE SIOUX FALLS SD
800 PM CST SUN FEB 19 2017

NOTE: "FAIR" INDICATES FEW OR NO CLOUDS BELOW 12,000 FEET WITH NO
SIGNIFICANT WEATHER AND OR OBSTRUCTIONS TO VISIBILITY.


SDZ038>040-050-052>070-200300-
SOUTHEAST SOUTH DAKOTA

CITY           SKY/WX    TMP DP  RH WIND       PRES   REMARKS
BROOKINGS      CLOUDY    54  48  80 S23       29.67F
CHAMBERLAIN    CLOUDY    59  46  61 S8        29.58F
HURON          CLOUDY    57  50  77 S14       29.61R
MADISON        FAIR      54  54 100 S10       29.69R
MITCHELL       CLOUDY    58  51  78 SE15      29.63R
SIOUX FALLS    CLOUDY    58  50  75 S17       29.70S
WINNER         FAIR      59  42  53 SE6       29.58F
YANKTON        CLOUDY    61  48  63 S12       29.68R
$$

MNZ071-072-080-081-089-090-097-098-200300-
SOUTHWEST MINNESOTA

CITY           SKY/WX    TMP DP  RH WIND       PRES   REMARKS
FAIRMONT       CLOUDY    52  48  86 SE12      29.84R
JACKSON        CLOUDY    52  45  76 SE9       29.82S
LUVERNE        CLOUDY    52  45  76 S12       29.73F
MARSHALL       CLOUDY    54  49  83 SE16      29.72F
MONTEVIDEO     CLOUDY    55  52  88 S15G23    29.73S
PIPESTONE      PTCLDY    54  45  71 S16       29.72F
REDWOOD FALLS  PTCLDY    54  49  83 SE18      29.76S
TRACY          PTCLDY    55  50  86 S14       29.74F
WINDOM         CLOUDY    55  48  76 SE13G18   29.79F
WORTHINGTON    CLOUDY    54  47  77 SE14      29.77F
$$

IAZ001>003-012>014-020>022-031-032-NEZ013-014-SDZ071-200300-
NORTHWEST IOWA

CITY           SKY/WX    TMP DP  RH WIND       PRES   REMARKS
CHEROKEE       CLOUDY    54  49  83 S9        29.78F
DENISON        CLOUDY    59  50  72 S15G22    29.79S
ESTHERVILLE    PTCLDY    51  48  89 SE10      29.82R
LE MARS        CLOUDY    57  48  72 SE10G16   29.75S
SHELDON        CLOUDY    55  54  94 SE14G21   29.74F
SIOUX CITY     CLOUDY    58  50  75 SE10      29.75S
SPENCER        PTCLDY    54  48  80 SE12      29.80S
STORM LAKE     PTCLDY    55  48  76 SE15G21   29.81S
$$

ABBREVIATIONS USED IN REMARKS
   TC - TEMPERATURE IN CELSIUS
  WCI - WIND CHILL INDEX
   HX - HEAT INDEX
  VSB - VISIBILITY





USA.gov is the U.S. government's official web portal to all federal, state and local government web resources and services.